Location: Brantley
(31.5822°N, 86.2569°W)
Time: 01:18:16
(UTC+00:00)

Vanguard 3 - Pass Details

Date: 24 February 2026
Orbit: 507 x 3205 km, 33.4° (Epoch: 10 March)

Event Time Altitude Azimuth Distance (km) Brightness Sun altitude
Rises 02:09:41 0° 280° (W) 3,784 11.7 -32.8°
Reaches altitude 10° 02:13:23 10° 267° (W) 2,425 10.4 -33.6°
Enters shadow 02:16:25 20° 235° (SW) 1,559 8.9 -34.2°
Maximum altitude 02:17:25 22° 217° (SW) 1,429 - -34.5°
Drops below altitude 10° 02:20:34 10° 165° (SSE) 1,830 - -35.1°
Sets 02:22:55 0° 148° (SSE) 2,618 - -35.6°
